This is the latest recevied weather packets stored in our database for station/object AL7BX-WX. If no packets are shown the sender has not sent any weather packets the latest 10 day(s).
| Time | Temp. | Humidity | Pressure | Rain* | Wind** | Luminosity | Snow |
|---|---|---|---|---|---|---|---|
| 1777949643 | 12.78° C | 34% | 0 hPa | 0 mm | - | - | - |
| 1777944423 | 15.56° C | 38% | 0 hPa | 0 mm | - | - | - |
| 1777943883 | 15.56° C | 38% | 0 hPa | 0 mm | - | - | - |
| 1777941903 | 16.67° C | 37% | 0 hPa | 0 mm | - | - | - |
| 1777940952 | 17.22° C | 37% | 0 hPa | 0 mm | - | - | - |
| 1777939873 | 16.67° C | 36% | 0 hPa | 0 mm | - | - | - |
| 1777939203 | 16.67° C | 35% | 0 hPa | 0 mm | - | - | - |
| 1777938843 | 17.22° C | 35% | 0 hPa | 0 mm | - | - | - |
| 1777938303 | 17.78° C | 34% | 0 hPa | 0 mm | - | - | - |
| 1777937893 | 17.78° C | 33% | 0 hPa | 0 mm | - | - | - |
| 1777937223 | 17.78° C | 34% | 0 hPa | 0 mm | - | - | - |
| 1777935603 | 17.78° C | 33% | 0 hPa | 0 mm | - | - | - |
| 1777935243 | 17.78° C | 33% | 0 hPa | 0 mm | - | - | - |
| 1777934163 | 18.33° C | 34% | 0 hPa | 0 mm | - | - | - |
| 1777931643 | 18.89° C | 33% | 0 hPa | 0 mm | - | - | - |
| 1777930024 | 19.44° C | 32% | 0 hPa | 0 mm | - | - | - |
| 1777927634 | 20° C | 33% | 0 hPa | 0 mm | - | - | - |
| 1777926963 | 19.44° C | 33% | 0 hPa | 0 mm | - | - | - |
| 1777923903 | 18.89° C | 38% | 0 hPa | 0 mm | - | - | - |
| 1777923493 | 19.44° C | 36% | 0 hPa | 0 mm | - | - | - |
| 1777919763 | 18.33° C | 40% | 0 hPa | 0 mm | - | - | - |
| 1777916163 | 16.11° C | 45% | 0 hPa | 0 mm | - | - | - |
| 1777914543 | 16.67° C | 45% | 0 hPa | 0 mm | - | - | - |
| 1777910043 | 15° C | 49% | 0 hPa | 0 mm | - | - | - |
| 1777908963 | 13.33° C | 53% | 0 hPa | 0 mm | - | - | - |
* Rain latest hour (hover to see other rain measurements)
** Current wind speed in m/s (hover to see current wind gust speed)